Time,TemperatureF,DewpointF,PressureIn,WindDirection,WindDirectionDegrees,WindSpeedMPH,WindSpeedGustMPH,Humidity,HourlyPrecipIn,Conditions,Clouds,dailyrainin,SoftwareType,DateUTC
2013-08-13 00:03:00,72.9,72.0,30.01,SE,146,0.0,0.0,98,0.01,,,0.00,weatherlink.com 1.10,2013-08-13 05:03:00,
2013-08-13 00:18:00,73.0,72.0,30.00,SSE,156,0.0,0.0,98,0.01,,,0.00,weatherlink.com 1.10,2013-08-13 05:18:00,
2013-08-13 00:33:00,73.1,73.0,30.00,SSE,160,0.0,0.0,98,0.01,,,0.00,weatherlink.com 1.10,2013-08-13 05:33:00,
2013-08-13 00:48:00,73.3,73.0,29.99,SE,131,0.0,1.0,98,0.00,,,0.00,weatherlink.com 1.10,2013-08-13 05:48:00,
2013-08-13 01:03:00,73.4,73.0,29.99,South,190,0.0,0.0,98,0.00,,,0.00,weatherlink.com 1.10,2013-08-13 06:03:00,
2013-08-13 01:18:00,73.5,73.0,29.99,South,190,0.0,0.0,98,0.00,,,0.00,weatherlink.com 1.10,2013-08-13 06:18:00,
2013-08-13 01:33:00,73.5,73.0,29.99,South,189,0.0,0.0,98,0.00,,,0.00,weatherlink.com 1.10,2013-08-13 06:33:00,
2013-08-13 01:48:00,73.4,73.0,29.99,SSW,205,0.0,1.0,98,0.00,,,0.00,weatherlink.com 1.10,2013-08-13 06:48:00,
2013-08-13 02:03:00,73.3,73.0,29.99,SSW,202,0.0,0.0,98,0.00,,,0.00,weatherlink.com 1.10,2013-08-13 07:03:00,
2013-08-13 02:18:00,73.1,73.0,29.99,SSW,203,0.0,0.0,98,0.00,,,0.00,weatherlink.com 1.10,2013-08-13 07:18:00,
2013-08-13 02:33:00,72.9,72.0,29.99,SSW,203,0.0,0.0,98,0.00,,,0.00,weatherlink.com 1.10,2013-08-13 07:33:00,
2013-08-13 02:48:00,72.7,72.0,29.98,SSW,193,0.0,0.0,98,0.00,,,0.00,weatherlink.com 1.10,2013-08-13 07:48:00,
2013-08-13 03:03:00,72.5,72.0,29.97,SSW,193,0.0,0.0,98,0.00,,,0.00,weatherlink.com 1.10,2013-08-13 08:03:00,
2013-08-13 03:18:00,72.5,72.0,29.97,ESE,117,0.0,0.0,98,0.00,,,0.00,weatherlink.com 1.10,2013-08-13 08:18:00,
2013-08-13 03:33:00,72.3,72.0,29.97,ESE,117,0.0,0.0,98,0.00,,,0.00,weatherlink.com 1.10,2013-08-13 08:33:00,
2013-08-13 03:48:00,72.4,72.0,29.97,SSE,167,0.0,0.0,98,0.00,,,0.00,weatherlink.com 1.10,2013-08-13 08:48:00,
2013-08-13 04:03:00,72.2,72.0,29.96,SSE,167,0.0,0.0,98,0.00,,,0.00,weatherlink.com 1.10,2013-08-13 09:03:00,
2013-08-13 04:18:00,72.2,72.0,29.96,SSE,167,0.0,0.0,98,0.00,,,0.00,weatherlink.com 1.10,2013-08-13 09:18:00,
2013-08-13 04:33:00,72.7,72.0,29.96,SSE,160,0.0,1.0,98,0.00,,,0.00,weatherlink.com 1.10,2013-08-13 09:33:00,
2013-08-13 04:48:00,72.8,73.0,29.96,SSE,159,0.0,0.0,99,0.00,,,0.00,weatherlink.com 1.10,2013-08-13 09:48:00,
2013-08-13 05:03:00,72.6,72.0,29.97,SW,221,0.0,0.0,98,0.00,,,0.00,weatherlink.com 1.10,2013-08-13 10:03:00,
2013-08-13 05:18:00,73.1,73.0,29.97,SSW,195,0.0,1.0,99,0.00,,,0.00,weatherlink.com 1.10,2013-08-13 10:18:00,
2013-08-13 05:33:00,73.3,73.0,29.97,East,99,0.0,1.0,99,0.00,,,0.00,weatherlink.com 1.10,2013-08-13 10:33:00,
2013-08-13 05:48:00,73.3,73.0,29.97,WSW,240,0.0,1.0,99,0.00,,,0.00,weatherlink.com 1.10,2013-08-13 10:48:00,
2013-08-13 06:03:00,73.1,73.0,29.98,SW,226,0.0,1.0,99,0.00,,,0.00,weatherlink.com 1.10,2013-08-13 11:03:00,
2013-08-13 06:19:00,72.7,72.0,29.98,SW,226,0.0,0.0,98,0.00,,,0.00,weatherlink.com 1.10,2013-08-13 11:19:00,
2013-08-13 06:33:00,72.8,72.0,29.99,SW,226,0.0,0.0,98,0.00,,,0.00,weatherlink.com 1.10,2013-08-13 11:33:00,
2013-08-13 06:48:00,73.1,73.0,29.99,SW,226,0.0,0.0,98,0.00,,,0.00,weatherlink.com 1.10,2013-08-13 11:48:00,
2013-08-13 07:03:00,74.4,74.0,29.99,SW,226,0.0,0.0,99,0.00,,,0.00,weatherlink.com 1.10,2013-08-13 12:03:00,
2013-08-13 07:18:00,75.1,75.0,29.99,SW,217,0.0,1.0,98,0.00,,,0.00,weatherlink.com 1.10,2013-08-13 12:18:00,
2013-08-13 07:34:00,76.4,76.0,30.00,West,264,0.0,0.0,98,0.00,,,0.00,weatherlink.com 1.10,2013-08-13 12:34:00,
2013-08-13 07:49:00,77.5,77.0,30.00,SW,226,0.0,1.0,98,0.00,,,0.00,weatherlink.com 1.10,2013-08-13 12:49:00,
2013-08-13 08:04:00,78.6,78.0,30.00,North,352,0.0,1.0,97,0.00,,,0.00,weatherlink.com 1.10,2013-08-13 13:04:00,
2013-08-13 08:19:00,79.9,79.0,30.00,ENE,57,0.0,1.0,96,0.00,,,0.00,weatherlink.com 1.10,2013-08-13 13:19:00,
2013-08-13 08:34:00,81.6,79.0,30.00,SSE,155,1.0,2.0,92,0.00,,,0.00,weatherlink.com 1.10,2013-08-13 13:34:00,
2013-08-13 08:48:00,82.2,79.0,30.00,NNE,15,2.0,5.0,90,0.00,,,0.00,weatherlink.com 1.10,2013-08-13 13:48:00,
2013-08-13 09:04:00,82.9,79.0,29.99,NNW,343,1.0,5.0,89,0.00,,,0.00,weatherlink.com 1.10,2013-08-13 14:04:00,
2013-08-13 09:19:00,83.2,79.0,29.99,NNE,19,0.0,5.0,87,0.00,,,0.00,weatherlink.com 1.10,2013-08-13 14:19:00,
2013-08-13 09:34:00,84.4,81.0,29.99,NE,35,0.0,4.0,88,0.00,,,0.00,weatherlink.com 1.10,2013-08-13 14:34:00,
2013-08-13 09:49:00,83.6,79.0,29.99,North,356,2.0,8.0,86,0.00,,,0.00,weatherlink.com 1.10,2013-08-13 14:49:00,
2013-08-13 10:04:00,84.7,80.0,29.99,SSW,205,1.0,4.0,85,0.00,,,0.00,weatherlink.com 1.10,2013-08-13 15:04:00,
2013-08-13 10:19:00,85.4,80.0,29.98,NE,49,1.0,6.0,83,0.00,,,0.00,weatherlink.com 1.10,2013-08-13 15:19:00,
2013-08-13 10:34:00,86.2,80.0,29.99,NW,315,2.0,8.0,81,0.00,,,0.00,weatherlink.com 1.10,2013-08-13 15:34:00,
2013-08-13 10:49:00,87.4,80.0,30.00,SSW,207,1.0,4.0,79,0.00,,,0.00,weatherlink.com 1.10,2013-08-13 15:49:00,
2013-08-13 11:04:00,87.4,80.0,30.00,NNW,329,2.0,5.0,79,0.00,,,0.00,weatherlink.com 1.10,2013-08-13 16:04:00,
2013-08-13 11:19:00,86.7,79.0,30.00,East,87,1.0,5.0,77,0.00,,,0.00,weatherlink.com 1.10,2013-08-13 16:19:00,
2013-08-13 11:34:00,87.3,80.0,29.99,WSW,253,0.0,4.0,78,0.00,,,0.00,weatherlink.com 1.10,2013-08-13 16:34:00,
2013-08-13 11:49:00,89.2,80.0,29.98,NE,56,3.0,5.0,74,0.00,,,0.00,weatherlink.com 1.10,2013-08-13 16:49:00,
2013-08-13 12:04:00,89.9,80.0,29.97,SE,144,1.0,5.0,72,0.00,,,0.00,weatherlink.com 1.10,2013-08-13 17:04:00,
2013-08-13 12:19:00,88.4,79.0,29.97,SW,229,7.0,8.0,74,0.00,,,0.00,weatherlink.com 1.10,2013-08-13 17:19:00,
2013-08-13 12:34:00,83.4,79.0,29.97,SW,232,4.0,6.0,85,0.00,,,0.00,weatherlink.com 1.10,2013-08-13 17:34:00,
2013-08-13 12:49:00,84.5,79.0,29.96,SW,220,3.0,4.0,83,0.00,,,0.00,weatherlink.com 1.10,2013-08-13 17:49:00,
2013-08-13 13:04:00,86.0,78.0,29.96,SE,139,0.0,3.0,78,0.00,,,0.00,weatherlink.com 1.10,2013-08-13 18:04:00,
2013-08-13 13:19:00,87.9,80.0,29.96,ESE,113,0.0,3.0,78,0.00,,,0.00,weatherlink.com 1.10,2013-08-13 18:19:00,
2013-08-13 13:34:00,91.0,81.0,29.95,SSE,166,0.0,6.0,72,0.00,,,0.00,weatherlink.com 1.10,2013-08-13 18:34:00,
2013-08-13 13:49:00,92.0,80.0,29.94,SW,234,0.0,3.0,67,0.00,,,0.00,weatherlink.com 1.10,2013-08-13 18:49:00,
2013-08-13 14:04:00,90.9,80.0,29.94,West,270,1.0,4.0,71,0.00,,,0.00,weatherlink.com 1.10,2013-08-13 19:04:00,
2013-08-13 14:19:00,90.5,80.0,29.94,SW,221,1.0,6.0,71,0.00,,,0.00,weatherlink.com 1.10,2013-08-13 19:19:00,
2013-08-13 14:35:00,88.2,79.0,29.93,WSW,253,5.0,6.0,74,0.00,,,0.00,weatherlink.com 1.10,2013-08-13 19:35:00,
2013-08-13 14:50:00,84.2,78.0,29.93,NW,319,0.0,4.0,81,0.00,,,0.00,weatherlink.com 1.10,2013-08-13 19:50:00,
2013-08-13 15:05:00,82.8,79.0,29.93,West,271,0.0,4.0,88,0.00,,,0.00,weatherlink.com 1.10,2013-08-13 20:05:00,
2013-08-13 15:20:00,82.4,79.0,29.93,South,190,3.0,5.0,88,0.00,,,0.00,weatherlink.com 1.10,2013-08-13 20:20:00,
2013-08-13 15:35:00,81.9,78.0,29.92,ESE,108,0.0,5.0,89,0.00,,,0.00,weatherlink.com 1.10,2013-08-13 20:35:00,
2013-08-13 15:50:00,81.4,77.0,29.92,SSE,161,3.0,7.0,87,0.00,,,0.00,weatherlink.com 1.10,2013-08-13 20:50:00,
2013-08-13 16:05:00,80.9,78.0,29.92,SSW,204,0.0,5.0,89,0.00,,,0.00,weatherlink.com 1.10,2013-08-13 21:05:00,
2013-08-13 16:20:00,80.3,77.0,29.91,SSW,203,2.0,6.0,88,0.00,,,0.00,weatherlink.com 1.10,2013-08-13 21:20:00,
2013-08-13 16:35:00,80.6,76.0,29.91,SW,219,0.0,3.0,86,0.00,,,0.00,weatherlink.com 1.10,2013-08-13 21:35:00,
2013-08-13 16:50:00,79.1,75.0,29.90,SW,222,0.0,6.0,86,0.00,,,0.00,weatherlink.com 1.10,2013-08-13 21:50:00,
2013-08-13 17:05:00,78.4,75.0,29.91,WSW,243,1.0,4.0,88,0.00,,,0.00,weatherlink.com 1.10,2013-08-13 22:05:00,
2013-08-13 17:20:00,78.4,75.0,29.92,WSW,255,0.0,2.0,89,0.00,,,0.00,weatherlink.com 1.10,2013-08-13 22:20:00,
2013-08-13 17:35:00,78.4,75.0,29.93,ENE,65,0.0,1.0,90,0.00,,,0.00,weatherlink.com 1.10,2013-08-13 22:35:00,
2013-08-13 17:50:00,78.0,75.0,29.93,WSW,238,0.0,5.0,91,0.00,,,0.00,weatherlink.com 1.10,2013-08-13 22:50:00,
2013-08-13 18:05:00,77.9,76.0,29.92,SW,215,0.0,2.0,92,0.00,,,0.00,weatherlink.com 1.10,2013-08-13 23:05:00,
2013-08-13 18:20:00,78.1,76.0,29.92,South,187,0.0,2.0,92,0.00,,,0.00,weatherlink.com 1.10,2013-08-13 23:20:00,
2013-08-13 18:35:00,77.9,76.0,29.92,SW,223,0.0,4.0,93,0.00,,,0.00,weatherlink.com 1.10,2013-08-13 23:35:00,
2013-08-13 18:50:00,77.5,76.0,29.92,SE,146,0.0,3.0,94,0.00,,,0.00,weatherlink.com 1.10,2013-08-13 23:50:00,
2013-08-13 19:05:00,76.8,75.0,29.92,SSW,204,1.0,4.0,94,0.00,,,0.00,weatherlink.com 1.10,2013-08-14 00:05:00,
2013-08-13 19:20:00,76.2,75.0,29.93,SSE,152,0.0,4.0,95,0.00,,,0.00,weatherlink.com 1.10,2013-08-14 00:20:00,
2013-08-13 19:35:00,75.8,75.0,29.93,SSW,207,0.0,2.0,96,0.00,,,0.00,weatherlink.com 1.10,2013-08-14 00:35:00,
2013-08-13 19:50:00,75.5,74.0,29.93,SW,219,0.0,2.0,96,0.00,,,0.00,weatherlink.com 1.10,2013-08-14 00:50:00,
2013-08-13 20:05:00,75.2,74.0,29.92,SSE,159,0.0,1.0,96,0.00,,,0.00,weatherlink.com 1.10,2013-08-14 01:05:00,
2013-08-13 20:20:00,74.9,74.0,29.92,SSE,159,0.0,0.0,96,0.00,,,0.00,weatherlink.com 1.10,2013-08-14 01:20:00,
2013-08-13 20:35:00,74.9,74.0,29.93,South,191,0.0,1.0,97,0.00,,,0.00,weatherlink.com 1.10,2013-08-14 01:35:00,
2013-08-13 20:50:00,74.6,74.0,29.93,SE,125,0.0,0.0,97,0.00,,,0.00,weatherlink.com 1.10,2013-08-14 01:50:00,
2013-08-13 21:05:00,74.3,73.0,29.93,SE,125,0.0,0.0,97,0.00,,,0.00,weatherlink.com 1.10,2013-08-14 02:05:00,
2013-08-13 21:20:00,74.2,73.0,29.93,SE,125,0.0,0.0,97,0.00,,,0.00,weatherlink.com 1.10,2013-08-14 02:20:00,
2013-08-13 21:35:00,74.2,73.0,29.93,SE,143,0.0,1.0,97,0.00,,,0.00,weatherlink.com 1.10,2013-08-14 02:35:00,
2013-08-13 21:50:00,74.4,74.0,29.93,ESE,117,0.0,0.0,97,0.00,,,0.00,weatherlink.com 1.10,2013-08-14 02:50:00,
2013-08-13 22:05:00,74.1,73.0,29.93,ESE,115,0.0,1.0,97,0.00,,,0.00,weatherlink.com 1.10,2013-08-14 03:05:00,
2013-08-13 22:20:00,74.2,73.0,29.94,ESE,115,0.0,0.0,97,0.00,,,0.00,weatherlink.com 1.10,2013-08-14 03:20:00,
2013-08-13 22:35:00,74.8,74.0,29.94,ESE,118,0.0,1.0,97,0.00,,,0.00,weatherlink.com 1.10,2013-08-14 03:35:00,
2013-08-13 22:50:00,74.6,74.0,29.93,ESE,119,0.0,0.0,97,0.00,,,0.00,weatherlink.com 1.10,2013-08-14 03:50:00,
2013-08-13 23:05:00,74.4,74.0,29.93,SSE,162,0.0,1.0,97,0.00,,,0.00,weatherlink.com 1.10,2013-08-14 04:05:00,
2013-08-13 23:20:00,74.0,73.0,29.93,SSE,162,0.0,0.0,97,0.00,,,0.00,weatherlink.com 1.10,2013-08-14 04:20:00,
2013-08-13 23:35:00,74.1,73.0,29.93,SE,136,0.0,0.0,97,0.00,,,0.00,weatherlink.com 1.10,2013-08-14 04:35:00,
2013-08-13 23:50:00,74.0,73.0,29.93,SE,141,0.0,0.0,97,0.00,,,0.00,weatherlink.com 1.10,2013-08-14 04:50:00,